Lexington Weather

Lexington, Massachusetts, USA

24°F
1/21/2021 9:45am 
  • Lexington Conditions: Clear
  • Temperature: 24.3°F / -4.3°CWarmer 2.2°F than last hour.
  • Dew Point: 13.5°FIncreased 1.7°Fsince last hour.
  • Relative Humidity: 63%Decreased 1.0% since last hour.
  • Wind: Wind from S S 2 mph, 10-min avg: Calm, gust: 6 mph
  • Barometer: 29.77 in Steady
  • Visibility: 10 miles
  • Snow Today: Trace
  •   

Regional Weather Roundup
for Boston / Norton, MA

        
000
ASUS41 KBOX 160505
RWRBOX

REGIONAL WEATHER ROUNDUP
NATIONAL WEATHER SERVICE BOSTON/NORTON MA
1200 AM EST SAT JAN 16 2021

NOTE:  "FAIR" INDICATES FEW OR NO CLOUDS BELOW 12,000 FEET WITH NO 
SIGNIFICANT WEATHER AND/OR OBSTRUCTIONS TO VISIBILITY.

MAZALL-160600-
EASTERN MASSACHUSETTS
  
CITY           SKY/WX    TMP DP  RH WIND       PRES   REMARKS
BOSTON         CLOUDY    38  36  92 E13       29.95F WCI  30          
BEVERLY        CLOUDY    41  36  82 SE10      29.97F                  
LAWRENCE       CLOUDY    37  35  92 E3        29.98F                  
BEDFORD        CLOUDY    36  33  89 NE6       29.94F WCI  31          
BLUE HILL        N/A     36  33  89 E17G25    29.89F WCI  26          
NORWOOD        CLOUDY    38  33  82 E3        29.93F                  
MARSHFIELD     CLOUDY    41  37  87 E12       29.94F                  
PLYMOUTH       CLOUDY    37  33  85 E9        29.92F WCI  30          
TAUNTON        CLOUDY    39  32  76 E10       29.92F                  
NEW BEDFORD    CLOUDY    37  33  85 E13       29.89F WCI  29          
$$

MAZALL-160600-
CAPE COD AND THE ISLANDS
  
CITY           SKY/WX    TMP DP  RH WIND       PRES   REMARKS
FALMOUTH       CLEAR     37  30  75 E9        29.93F WCI  31          
HYANNIS        CLOUDY    41  35  79 E8        29.92F                  
CHATHAM        CLOUDY    43  34  70 E12       29.99F                  
PROVINCETOWN   CLOUDY    40  35  83 SE7       29.99F                  
NANTUCKET      CLOUDY    42  36  79 E18       29.94F                  
MARTHAS VNYRD  MOCLDY    40  35  83 E16       29.90F WCI  31          
$$
 
MAZALL-160600-
CENTRAL AND WESTERN MASSACHUSETTS
  
CITY           SKY/WX    TMP DP  RH WIND       PRES   REMARKS
WORCESTER      CLOUDY    34  29  82 E12       29.89F WCI  25          
FITCHBURG      CLOUDY    35  33  92 VRB3      29.94F                  
ORANGE         CLOUDY    36  31  82 CALM      29.93F                  
SPRINGFIELD    CLOUDY    38  29  71 E9        29.89F WCI  31          
WESTFIELD      CLOUDY    38  29  70 NE7       29.90F                  
NORTH ADAMS    CLOUDY    37  26  64 E20G26    29.85F WCI  27          
PITTSFIELD     CLOUDY    34  26  72 E8G21     29.81F WCI  27          
$$
 
RIZALL-160600-
RHODE ISLAND
  
CITY           SKY/WX    TMP DP  RH WIND       PRES   REMARKS
PROVIDENCE     CLOUDY    37  31  78 NE7       29.92F WCI  32          
NEWPORT        MOCLDY    39  33  79 E10G21    29.90F                  
BLOCK ISLAND   CLOUDY    41  35  79 E20G29    29.87F WCI  32          
SMITHFIELD     MOCLDY    35  33  92 E8        29.91F WCI  29          
WESTERLY       CLOUDY    39  33  79 E15G23    29.89F WCI  31          
$$
 
CTZALL-160600-
CONNECTICUT
  
CITY           SKY/WX    TMP DP  RH WIND       PRES   REMARKS
BRADLEY INTL   LGT RAIN  38  27  64 NE9       29.89S WCI  31          
HARTFORD       LGT RAIN  40  30  67 E8        29.88F                  
BRIDGEPORT     LGT RAIN  42  38  85 E24G31    29.80                   
DANBURY        RAIN      36  34  92 E14       29.79F FOG     WCI  27  
GROTON         CLOUDY    41  33  73 E18G26    29.85F                  
NEW HAVEN      CLOUDY    42  37  82 E20G30    29.81F                  
CHESTER        CLOUDY    39  34  81 E12G18    29.83F WCI  32          
MERIDEN        LGT RAIN  39  32  76 NE7       29.83F                  
WILLIMANTIC    CLOUDY    38  29  70 E8        29.90S                  
OXFORD         MIX PCPN  35  35 100 NE10G20   29.81F FOG     WCI  27  
$$

MEZ002-015-021-024-NHZ003-005-008-011-012-014-VTZ005-008-160600-
NORTHERN NEW ENGLAND
  
CITY           SKY/WX    TMP DP  RH WIND       PRES   REMARKS
PORTLAND ME    CLOUDY    35  33  92 NE5       30.03F WCI  31          
BANGOR ME      CLOUDY    23  20  88 CALM      30.10F                  
CONCORD NH     CLOUDY    33  29  85 NE5       29.98F WCI  29          
MANCHESTER NH  CLOUDY    35  31  85 N6        29.96F WCI  30          
NASHUA NH      CLOUDY    34  34 100 N3        29.97F                  
PORTSMOUTH NH  CLOUDY    41  37  87 NE5       29.98F                  
JAFFREY NH     CLOUDY    35  31  85 VRB5      29.91F WCI  31          
KEENE NH       CLOUDY    35  30  82 CALM      29.94F                  
BURLINGTON VT  CLOUDY    37  24  59 SE7       29.90S WCI  32          
MT. WASHINGTON FRZ RAIN  16  16 100 SE36G44     N/A  VSB 1/16WCI  -6  
$$

NYZ052-076-160600-
EASTERN NEW YORK
  
CITY           SKY/WX    TMP DP  RH WIND       PRES   REMARKS
ALBANY         LGT RAIN  36  30  79 CALM      29.84F                  
NEW YORK CITY  LGT RAIN  46  41  82 E14       29.77R                  
$$
 
ANZALL-160600-
MARINE OBSERVATIONS
  
STATION/POSITION TIME  TEMP    WIND        PRES    VSBY  WAVE
                       AIR SEA DIR/SP/G                  HT/PER
                 (UTC) (F)     (DEG/KT/KT) (MB)    (MI)  (FT/S)
BOSTON BUOY      0450   42 43  120/ 14/ 16 1015.5F         3/ 6
BUZZARDS BAY     0400           80/ 22/ 24 1014.6F
NANTUCKET SOUND  0450      41  100/ 16/ 19   N/A           1/ 3
MASS BAY-STELLWA 0404   42     130/ 14/ 17 1014.9F  1 7/8  3/ 6
ISLE OF SHOALS   0400   42     120/ 15/ 17 1016.1F
S OF BLOCK IS    0456      47                N/A           6/ 6
$$

......................KEY.........................
  SKY/WX - SKY CONDITION/PRESENT WEATHER
  TMP    - TEMPERATURE IN FAHRENHEIT
  DWPT   - DEWPOINT IN FAHRENHEIT
  RH     - RELATIVE HUMIDITY IN PERCENT
  WIND   - DIRECTION AND SPEED IN MPH
  PRES   - MEAN SEA LEVEL PRESSURE IN INCHES OF HG
  WCI    - WIND CHILL INDEX
  VSB    - VISIBILITY IN MILES
  HX     - HEAT INDEX
  TC     - TEMPERATURE IN CELSIUS
  VRB    - VARIABLE WIND DIRECTION
  N/A    - NOT AVAILABLE
  
      

Other recent Regional Weather Roundups

Thu Jan 21, 9:04am

Thu Jan 21, 7:04am

Thu Jan 21, 6:04am

Thu Jan 21, 5:04am

Thu Jan 21, 4:04am

Thu Jan 21, 3:04am

Thu Jan 21, 2:04am

Thu Jan 21, 1:04am

Thu Jan 21, 12:04am

Wed Jan 20, 11:04pm

Wed Jan 20, 10:05pm

Wed Jan 20, 9:04pm

Wed Jan 20, 8:04pm

Wed Jan 20, 7:04pm

Wed Jan 20, 6:05pm

Wed Jan 20, 5:05pm

Wed Jan 20, 1:04pm

Wed Jan 20, 12:04pm

Wed Jan 20, 11:04am

Wed Jan 20, 10:04am

Wed Jan 20, 9:05am

Wed Jan 20, 8:04am

Wed Jan 20, 7:04am

Wed Jan 20, 6:04am

Wed Jan 20, 5:04am

Wed Jan 20, 4:04am

Wed Jan 20, 3:05am

Wed Jan 20, 2:04am

Wed Jan 20, 1:04am

Wed Jan 20, 12:04am

Tue Jan 19, 11:04pm

Tue Jan 19, 10:04pm

Tue Jan 19, 9:04pm

Tue Jan 19, 8:04pm

Tue Jan 19, 7:04pm

Tue Jan 19, 6:05pm

Tue Jan 19, 5:04pm

Tue Jan 19, 4:05pm

Tue Jan 19, 3:04pm

Tue Jan 19, 2:04pm

Tue Jan 19, 1:04pm

Tue Jan 19, 12:05pm

Tue Jan 19, 11:04am

Tue Jan 19, 10:05am

Tue Jan 19, 9:04am

Tue Jan 19, 8:04am

Tue Jan 19, 7:04am

Tue Jan 19, 6:04am

Tue Jan 19, 5:04am

Tue Jan 19, 4:04am

Tue Jan 19, 3:04am

Tue Jan 19, 2:04am

Tue Jan 19, 1:04am

Tue Jan 19, 12:04am

Mon Jan 18, 11:04pm

Mon Jan 18, 10:04pm

Mon Jan 18, 9:04pm

Mon Jan 18, 8:05pm

Mon Jan 18, 7:04pm

Mon Jan 18, 6:05pm

Mon Jan 18, 5:04pm

Mon Jan 18, 4:04pm

Mon Jan 18, 3:04pm

Mon Jan 18, 2:04pm

Mon Jan 18, 1:04pm

Mon Jan 18, 12:04pm

Mon Jan 18, 11:04am

Mon Jan 18, 10:04am

Mon Jan 18, 9:04am

Mon Jan 18, 8:04am

Mon Jan 18, 7:04am

Mon Jan 18, 6:04am

Mon Jan 18, 5:04am

Mon Jan 18, 4:04am

Mon Jan 18, 3:04am

Mon Jan 18, 2:04am

Mon Jan 18, 1:04am

Mon Jan 18, 12:04am

Sun Jan 17, 11:04pm

Sun Jan 17, 10:04pm

Sun Jan 17, 9:04pm

Sun Jan 17, 8:04pm

Sun Jan 17, 7:04pm

Sun Jan 17, 6:04pm

Sun Jan 17, 5:04pm

Sun Jan 17, 4:05pm

Sun Jan 17, 3:04pm

Sun Jan 17, 2:04pm

Sun Jan 17, 1:04pm

Sun Jan 17, 12:04pm

Sun Jan 17, 11:04am

Sun Jan 17, 10:04am

Sun Jan 17, 9:04am

Sun Jan 17, 8:04am

Sun Jan 17, 7:04am

Sun Jan 17, 6:04am

Sun Jan 17, 5:04am

Sun Jan 17, 4:04am

Sun Jan 17, 3:04am

Sun Jan 17, 2:04am

Sun Jan 17, 1:04am

Sun Jan 17, 12:04am

Sat Jan 16, 11:05pm

Sat Jan 16, 10:04pm

Sat Jan 16, 9:04pm

Sat Jan 16, 8:05pm

Sat Jan 16, 7:04pm

Sat Jan 16, 6:04pm

Sat Jan 16, 5:05pm

Sat Jan 16, 4:05pm

Sat Jan 16, 3:05pm

Sat Jan 16, 2:04pm

Sat Jan 16, 1:04pm

Sat Jan 16, 12:04pm

Sat Jan 16, 11:04am

Sat Jan 16, 10:05am

Sat Jan 16, 9:04am

Sat Jan 16, 8:04am

Sat Jan 16, 7:04am

Sat Jan 16, 6:04am

Sat Jan 16, 5:04am

Sat Jan 16, 4:04am

Sat Jan 16, 3:05am

Sat Jan 16, 2:04am

Sat Jan 16, 1:04am

Fri Jan 15, 11:05pm

Fri Jan 15, 10:04pm

Fri Jan 15, 9:04pm

Fri Jan 15, 8:04pm

Fri Jan 15, 7:05pm

Fri Jan 15, 6:05pm

Fri Jan 15, 5:05pm

Fri Jan 15, 4:05pm

Fri Jan 15, 3:04pm

Fri Jan 15, 2:05pm

Fri Jan 15, 1:04pm

Fri Jan 15, 12:05pm

Fri Jan 15, 11:04am

Fri Jan 15, 10:04am

Fri Jan 15, 9:05am

Fri Jan 15, 8:04am

Fri Jan 15, 7:04am

Fri Jan 15, 6:04am

Fri Jan 15, 5:05am

Fri Jan 15, 4:04am

Fri Jan 15, 3:04am

Fri Jan 15, 2:04am

Fri Jan 15, 1:04am

Fri Jan 15, 12:05am

Thu Jan 14, 11:04pm

Thu Jan 14, 10:04pm

Thu Jan 14, 9:04pm

Thu Jan 14, 8:05pm

Thu Jan 14, 7:04pm

Thu Jan 14, 6:04pm

Thu Jan 14, 5:04pm

Thu Jan 14, 4:05pm

Thu Jan 14, 3:04pm

Thu Jan 14, 2:04pm

Thu Jan 14, 1:04pm

Thu Jan 14, 12:05pm

Thu Jan 14, 11:05am

Thu Jan 14, 10:04am

Thu Jan 14, 9:04am

Thu Jan 14, 8:04am

Thu Jan 14, 7:04am

Thu Jan 14, 6:04am

Thu Jan 14, 5:04am

Thu Jan 14, 4:04am

Thu Jan 14, 3:04am

Thu Jan 14, 2:04am

Thu Jan 14, 1:04am

Thu Jan 14, 12:04am

Wed Jan 13, 11:04pm

Wed Jan 13, 10:04pm

Wed Jan 13, 9:04pm

Wed Jan 13, 8:05pm

Wed Jan 13, 7:04pm

Wed Jan 13, 6:04pm

Wed Jan 13, 5:04pm

Wed Jan 13, 4:04pm

Wed Jan 13, 3:05pm

Wed Jan 13, 2:04pm

Wed Jan 13, 1:04pm

Wed Jan 13, 12:04pm

Wed Jan 13, 11:04am

Wed Jan 13, 10:04am

Wed Jan 13, 9:05am

Wed Jan 13, 8:04am

Wed Jan 13, 7:04am

Wed Jan 13, 6:04am

Wed Jan 13, 5:04am

Wed Jan 13, 4:04am

Wed Jan 13, 3:04am

Wed Jan 13, 2:04am

Wed Jan 13, 1:04am

Wed Jan 13, 12:05am

Tue Jan 12, 11:04pm

Tue Jan 12, 10:04pm

Tue Jan 12, 9:04pm

Tue Jan 12, 8:05pm

Tue Jan 12, 7:04pm

Meta data:

ID: 5c03b82c-7ac9-4d1f-9787-3edaabc2a85c
Link: https://api.weather.gov/products/5c03b82c-7ac9-4d1f-9787-3edaabc2a85c